STARLINK-5722, 55610

Orbit data source: Space-Track

STARLINK-5722, 55610 is a payload satellite owned by SpaceX/Seattle (US) in LEO that was launched on Sun, 12 Feb 2023 UTC via an FALCON 9 launch vehicle from the Air Force Eastern Test Range (AFETR). Payload-class satellites include a variety of spacecraft equipped with specific instruments for various scientific and technological missions. These include communications satellites like Starlink; space stations such as the ISS; scientific satellites like the Hubble; Earth observation satellites from companies like Planet Labs, Umbra, and HawkEye 360; GPS; miniature CubeSats for education and research; and military/defense satellites.

Loading next visibility...
Identifier
55610, 2023-020AT
Orbit
LEO
Country
Flag of USUS
Related business
Manufacturer
SpaceX/Seattle
Mission
Operational Commercial Communications
Bus & Motor
STARLINK, Unknown motor
Mass
305 kg wet, ~290 kg dry
Launch date (UTC)
2023-02-12 (3 years ago)
Launch vehicle
FALCON 9
Launch site
Air Force Eastern Test Range (AFETR)
Object type
Payload
Rocket body
Debris
Shape & HBR
Box + 1 Pan, 10.1 m
Radar Cross Section
13.562 m², Large (>1 m²)

Expand to show TLE details & history
Last TLE update: 1 day ago

TLE from 1 day ago
0 STARLINK-5722
1 55610U 23020AT  25312.66637903  .00000046  00000-0  18491-4 0  9994
2 55610  43.0019 289.3268 0001426 268.2574  91.8105 15.02534571150868
Epoch: 2025-11-08T15:59Z
TLE epoch observation values (Epoch: 2025-11-08T15:59:35.148Z)
Latitude
-0°
Longitude
1.33763°
Altitude
558.893 km
Speed
7.584 km/s
True Right ascension
19h 17m 18s
True Declination
0° 00' 00"
Sunlit
Object was in daylight at epoch
Visualization orbit readout
Latitude
Unknown
Longitude
Unknown
Altitude
Unknown
Speed
Unknown
Apparent Right ascension
Unknown
Apparent Declination
Unknown
Sunlit
N/A
Visualization observer readout
Local Sidereal Time
17:48:52
Azimuth
Unknown
Elevation
Unknown
Doppler factor
Unknown
Orbital elements
Apogee altitude
561.997 km
Perigee altitude
560.018 km
Semi-major axis
6,939.145 km
Eccentricity
0.00014
Inclination
43.0019°
RAAN
289.3268°
Arg. of periapsis
268.2574°
True anomaly
91.82683°
Mean anomaly
91.8105°
Eccentric anomaly
91.81867°
Mean motion
3.75478 °/min
Orbital period
95.88 mins
BSTAR
0.000018491
Loading maneuver chart data...
Computing Atmospheric mass density...
Loading historical data...
Loading historical data...
Loading historical data...
Loading historical data...
Loading historical data...
Loading historical data...
Loading historical data...

Documentation

Showing up to 5 results
|